S51UL-6 Weather Reports


Display with metric or nautical units.
time (UTC)temp
F
wind
direction
speed
MPH
gust
MPH
rain 1hr
in
rain 24hr
in
rain mn
in
humidity
%
barometer
mb
20260509162224 59 23 1.0 3.0 0.00 0.00 0.00 70 1018.4
20260509161723 60 0 0.0 0.0 0.00 0.00 0.00 69 1018.4
20260509161223 60 0 0.0 2.0 0.00 0.00 0.00 68 1018.3
20260509160724 60 315 1.0 2.0 0.00 0.00 0.00 67 1018.3
20260509160223 61 338 0.0 2.0 0.00 0.00 0.00 66 1018.3
20260509155724 61 315 0.0 0.0 0.00 0.00 0.00 65 1018.0
20260509154723 62 315 2.0 4.0 0.00 0.00 0.00 62 1018.1
20260509153224 64 0 1.0 4.0 0.00 0.00 0.00 58 1017.6
20260509152724 65 0 2.0 4.0 0.00 0.00 0.00 56 1017.8
20260509151724 67 0 2.0 8.0 0.00 0.00 0.00 51 1017.8
20260509151226 69 0 2.0 4.0 0.00 0.00 0.00 50 1017.4
20260509150722 71 0 6.0 9.0 0.00 0.00 0.00 48 1016.8
20260509150225 74 23 4.0 9.0 0.00 0.00 0.00 44 1016.7
20260509145724 75 158 0.0 3.0 0.00 0.00 0.00 44 1016.3
20260509144724 76 135 1.0 3.0 0.00 0.00 0.00 44 1015.9
20260509144224 76 135 0.0 3.0 0.00 0.00 0.00 44 1015.8
20260509143724 77 135 3.0 7.0 0.00 0.00 0.00 43 1015.7
20260509142724 78 158 1.0 3.0 0.00 0.00 0.00 43 1015.7
20260509142224 78 135 2.0 4.0 0.00 0.00 0.00 44 1015.7
20260509141343 77 135 3.0 4.0 0.00 0.00 0.00 45 1015.5
20260509141224 77 135 3.0 4.0 0.00 0.00 0.00 45 1015.5
20260509140725 77 135 4.0 6.0 0.00 0.00 0.00 46 1015.7
20260509140225 74 158 4.0 6.0 0.00 0.00 0.00 48 1015.7
20260509135225 73 135 4.0 4.0 0.00 0.00 0.00 48 1015.7
20260509134725 73 158 3.0 4.0 0.00 0.00 0.00 49 1015.7
20260509133725 72 158 5.0 9.0 0.00 0.00 0.00 48 1015.8
20260509133225 73 158 2.0 5.0 0.00 0.00 0.00 47 1015.8
20260509131725 73 158 2.0 4.0 0.00 0.00 0.00 46 1016.3
20260509131225 74 158 3.0 4.0 0.00 0.00 0.00 45 1016.2
20260509130725 74 158 3.0 7.0 0.00 0.00 0.00 45 1016.3
20260509130225 74 158 5.0 7.0 0.00 0.00 0.00 44 1016.2
20260509125726 75 180 4.0 6.0 0.00 0.00 0.00 44 1016.2
20260509125226 76 158 4.0 11.0 0.00 0.00 0.00 43 1016.3
20260509124726 78 158 6.0 11.0 0.00 0.00 0.00 42 1016.5
20260509123726 79 158 1.0 8.0 0.00 0.00 0.00 42 1016.5
20260509123226 79 158 4.0 8.0 0.00 0.00 0.00 42 1016.3
20260509122725 79 135 4.0 5.0 0.00 0.00 0.00 42 1016.4
20260509122226 79 158 2.0 6.0 0.00 0.00 0.00 41 1016.5
20260509121726 79 158 2.0 6.0 0.00 0.00 0.00 42 1016.5
20260509120726 80 158 4.0 9.0 0.00 0.00 0.00 39 1016.6
20260509120226 82 135 1.0 5.0 0.00 0.00 0.00 41 1016.7
20260509115757 81 135 0.0 0.0 0.00 0.00 0.00 43 1016.7
20260509115726 81 135 0.0 0.0 0.00 0.00 0.00 43 1016.7
20260509115226 80 23 0.0 2.0 0.00 0.00 0.00 44 1017.0
20260509114726 79 135 0.0 2.0 0.00 0.00 0.00 43 1017.0
20260509113726 81 135 0.0 2.0 0.00 0.00 0.00 41 1017.1
20260509112726 81 158 3.0 6.0 0.00 0.00 0.00 43 1017.1
20260509111227 82 180 2.0 5.0 0.00 0.00 0.00 44 1017.4
20260509110726 82 158 3.0 5.0 0.00 0.00 0.00 44 1017.3
20260509110226 82 158 3.0 3.0 0.00 0.00 0.00 43 1017.4
20260509105727 82 158 1.0 4.0 0.00 0.00 0.00 45 1017.5
20260509105227 82 135 1.0 4.0 0.00 0.00 0.00 45 1017.5
20260509104727 80 23 0.0 0.0 0.00 0.00 0.00 48 1017.6
20260509104227 79 135 0.0 0.0 0.00 0.00 0.00 49 1017.8
20260509103727 78 158 0.0 0.0 0.00 0.00 0.00 50 1017.8
20260509103227 77 158 2.0 4.0 0.00 0.00 0.00 49 1017.8
20260509102230 76 180 0.0 5.0 0.00 0.00 0.00 49 1017.9
20260509101727 76 158 0.0 2.0 0.00 0.00 0.00 50 1017.9
20260509101228 76 158 0.0 2.0 0.00 0.00 0.00 50 1017.8
20260509100728 76 23 0.0 0.0 0.00 0.00 0.00 51 1017.8
20260509100227 75 23 1.0 3.0 0.00 0.00 0.00 52 1018.0
20260509095727 75 23 1.0 3.0 0.00 0.00 0.00 51 1017.9
20260509095227 74 135 2.0 4.0 0.00 0.00 0.00 52 1018.2
20260509094727 74 158 2.0 4.0 0.00 0.00 0.00 53 1018.3
20260509094227 73 158 3.0 6.0 0.00 0.00 0.00 54 1018.2
20260509093820 73 158 3.0 6.0 0.00 0.00 0.00 53 1018.4
20260509093728 73 158 3.0 6.0 0.00 0.00 0.00 53 1018.4
20260509092228 73 158 3.0 6.0 0.00 0.00 0.00 54 1018.2
20260509091727 72 158 4.0 6.0 0.00 0.00 0.00 53 1018.4
20260509091229 73 158 2.0 3.0 0.00 0.00 0.00 53 1018.3
20260509090729 73 158 0.0 2.0 0.00 0.00 0.00 54 1018.3
20260509085228 72 180 1.0 3.0 0.00 0.00 0.00 56 1018.3
20260509084728 71 135 0.0 0.0 0.00 0.00 0.00 57 1018.3
20260509084228 71 135 0.0 1.0 0.00 0.00 0.00 59 1018.5
20260509083728 70 158 1.0 4.0 0.00 0.00 0.00 59 1018.4
20260509083228 70 158 1.0 4.0 0.00 0.00 0.00 57 1018.7
20260509082728 70 23 0.0 0.0 0.00 0.00 0.00 57 1018.7
20260509082229 71 23 0.0 0.0 0.00 0.00 0.00 58 1018.7
20260509081728 71 135 0.0 1.0 0.00 0.00 0.00 60 1018.6
20260509081229 70 158 1.0 4.0 0.00 0.00 0.00 61 1018.7
20260509080728 69 158 0.0 4.0 0.00 0.00 0.00 62 1018.7
20260509080228 69 23 1.0 4.0 0.00 0.00 0.00 63 1018.6
20260509075229 68 45 0.0 0.0 0.00 0.00 0.00 67 1018.8
20260509074229 66 135 0.0 0.0 0.00 0.00 0.00 69 1018.6
20260509073729 64 135 0.0 3.0 0.00 0.00 0.00 72 1018.8
20260509072729 62 158 0.0 0.0 0.00 0.00 0.00 72 1018.8
20260509072229 62 23 0.0 0.0 0.00 0.00 0.00 73 1018.8
20260509071229 61 135 0.0 2.0 0.00 0.00 0.00 76 1018.7
20260509070229 60 158 1.0 2.0 0.00 0.00 0.00 77 1018.8
20260509065230 59 135 0.0 4.0 0.00 0.00 0.00 79 1018.8
20260509064729 58 45 0.0 2.0 0.00 0.00 0.00 80 1018.8
20260509064230 58 45 0.0 0.0 0.00 0.00 0.00 82 1018.8
20260509063730 56 45 0.0 0.0 0.00 0.00 0.00 82 1018.8
20260509063229 56 45 0.0 0.0 0.00 0.00 0.00 83 1018.7
20260509062730 56 45 0.0 0.0 0.00 0.00 0.00 83 1018.8
20260509062230 55 45 0.0 0.0 0.00 0.00 0.00 84 1018.9
20260509061730 54 45 0.0 0.0 0.00 0.00 0.00 84 1018.8
20260509060730 53 45 0.0 0.0 0.00 0.00 0.00 85 1018.8
20260509060230 53 45 0.0 0.0 0.00 0.00 0.00 85 1018.8
20260509055730 52 45 0.0 0.0 0.00 0.00 0.00 86 1018.8
20260509055230 51 45 0.0 0.0 0.00 0.00 0.00 85 1018.8
20260509054230 50 45 0.0 0.0 0.00 0.00 0.00 86 1018.5
20260509053232 49 45 0.0 0.0 0.00 0.00 0.00 86 1018.6
20260509052730 49 45 0.0 0.0 0.00 0.00 0.00 86 1018.6
20260509051730 48 45 0.0 0.0 0.00 0.00 0.00 86 1018.5
20260509051231 47 45 0.0 0.0 0.00 0.00 0.00 86 1018.5
20260509050730 47 45 0.0 0.0 0.00 0.00 0.00 86 1018.6
20260509050230 47 45 0.0 0.0 0.00 0.00 0.00 85 1018.5
20260509045731 46 45 0.0 0.0 0.00 0.00 0.00 85 1018.5
20260509045231 45 45 0.0 0.0 0.00 0.00 0.00 85 1018.5
20260509044731 45 45 0.0 0.0 0.00 0.00 0.00 85 1018.4
20260509044231 45 45 0.0 0.0 0.00 0.00 0.00 85 1018.4
20260509043731 45 45 0.0 0.0 0.00 0.00 0.00 85 1018.3
20260509043231 45 45 0.0 0.0 0.00 0.00 0.00 85 1018.4
20260509041731 44 45 0.0 0.0 0.00 0.00 0.00 84 1018.1
20260509041231 44 45 0.0 0.0 0.00 0.00 0.00 84 1018.0
20260509040731 44 45 0.0 0.0 0.00 0.00 0.00 84 1018.1
20260509040231 44 45 0.0 0.0 0.00 0.00 0.00 84 1018.0
20260509035731 44 45 0.0 0.0 0.00 0.00 0.00 84 1018.0
20260509034232 45 45 0.0 0.0 0.00 0.00 0.00 84 1018.1
20260509033733 45 45 0.0 0.0 0.00 0.00 0.00 83 1018.1
20260509033232 45 45 0.0 0.0 0.00 0.00 0.00 83 1018.0
20260509032732 45 45 0.0 0.0 0.00 0.00 0.00 83 1017.9
20260509032232 45 45 0.0 0.0 0.00 0.00 0.00 83 1018.0
20260509031732 46 45 0.0 0.0 0.00 0.00 0.00 83 1018.0
20260509031233 46 45 0.0 0.0 0.00 0.00 0.00 83 1018.0
20260509030732 46 45 0.0 0.0 0.00 0.00 0.00 83 1017.9
20260509030232 46 45 0.0 0.0 0.00 0.00 0.00 83 1018.0
20260509025732 46 45 0.0 0.0 0.00 0.00 0.00 83 1017.9
20260509025232 46 45 0.0 0.0 0.00 0.00 0.00 83 1017.8
20260509024732 46 45 0.0 0.0 0.00 0.00 0.00 83 1018.0
20260509024232 46 45 0.0 0.0 0.00 0.00 0.00 83 1017.9
20260509023730 47 45 0.0 0.0 0.00 0.00 0.00 83 1018.0
20260509022731 47 45 0.0 0.0 0.00 0.00 0.00 82 1017.9
20260509022231 47 45 0.0 0.0 0.00 0.00 0.00 82 1018.1
20260509021732 47 45 0.0 0.0 0.00 0.00 0.00 82 1017.9
20260509021231 47 45 0.0 0.0 0.00 0.00 0.00 82 1018.0
20260509020732 47 45 0.0 0.0 0.00 0.00 0.00 82 1018.0
20260509020233 48 45 0.0 0.0 0.00 0.00 0.00 82 1017.9
20260509015731 48 45 0.0 0.0 0.00 0.00 0.00 82 1018.0
20260509015233 48 45 0.0 0.0 0.00 0.00 0.00 82 1018.0
20260509014733 48 45 0.0 0.0 0.00 0.00 0.00 82 1018.0
20260509014231 48 45 0.0 0.0 0.00 0.00 0.00 82 1017.9
20260509013733 48 45 0.0 0.0 0.00 0.00 0.00 82 1018.1
20260509013233 48 45 0.0 0.0 0.00 0.00 0.00 81 1018.0
20260509012733 48 45 0.0 0.0 0.00 0.00 0.00 81 1018.0
20260509012231 48 45 0.0 0.0 0.00 0.00 0.00 81 1017.9
20260509011231 49 45 0.0 0.0 0.00 0.00 0.00 81 1017.9
20260509010731 49 45 0.0 0.0 0.00 0.00 0.00 81 1017.9
20260509010231 49 45 0.0 0.0 0.00 0.00 0.00 81 1018.1
20260509005232 49 45 0.0 0.0 0.00 0.00 0.00 80 1018.0
20260509004734 49 45 0.0 0.0 0.00 0.00 0.00 80 1018.0
20260509004233 49 45 0.0 0.0 0.00 0.00 0.00 80 1017.9
20260509003732 49 45 0.0 0.0 0.00 0.00 0.00 80 1018.0
20260509002735 50 45 0.0 0.0 0.00 0.00 0.00 80 1018.1
20260509002234 50 45 0.0 0.0 0.00 0.00 0.00 80 1018.0
20260509001732 50 45 0.0 0.0 0.00 0.00 0.00 80 1018.2
20260509001232 50 45 0.0 0.0 0.00 0.00 0.00 80 1018.1
20260509000735 50 45 0.0 0.0 0.00 0.00 0.00 80 1018.3
20260509000233 50 45 0.0 0.0 0.00 0.00 0.00 80 1018.2
20260508235734 50 45 0.0 0.0 0.00 0.00 0.00 80 1018.1
20260508235232 50 45 0.0 0.0 0.00 0.00 0.00 80 1018.0
20260508234734 50 45 0.0 0.0 0.00 0.00 0.00 80 1018.0
20260508234234 50 45 0.0 0.0 0.00 0.00 0.00 79 1018.1
20260508233233 50 45 0.0 0.0 0.00 0.00 0.00 79 1018.0
20260508232734 50 45 0.0 0.0 0.00 0.00 0.00 79 1018.1
20260508232233 50 45 0.0 0.0 0.00 0.00 0.00 78 1018.2
20260508231733 50 45 0.0 0.0 0.00 0.00 0.00 78 1018.1
20260508231233 51 45 0.0 0.0 0.00 0.00 0.00 78 1018.1
20260508230733 51 45 0.0 0.0 0.00 0.00 0.00 78 1018.2
20260508225735 51 45 0.0 0.0 0.00 0.00 0.00 79 1018.1
20260508225235 51 45 0.0 0.0 0.00 0.00 0.00 79 1018.0
20260508224235 51 45 0.0 0.0 0.00 0.00 0.00 79 1018.0
20260508223733 51 45 0.0 0.0 0.00 0.00 0.00 79 1018.2
20260508223233 51 90 0.0 0.0 0.00 0.00 0.00 79 1018.1
20260508222735 51 113 0.0 0.0 0.00 0.00 0.00 79 1018.1
20260508222235 51 113 0.0 0.0 0.00 0.00 0.00 78 1018.1
20260508221733 51 113 0.0 0.0 0.00 0.00 0.00 77 1017.9
20260508221237 51 113 0.0 0.0 0.00 0.00 0.00 75 1017.9
20260508220733 51 113 0.0 0.0 0.00 0.00 0.00 75 1017.8
20260508220233 51 113 0.0 0.0 0.00 0.00 0.00 75 1017.9
20260508215735 51 113 0.0 0.0 0.00 0.00 0.00 75 1017.7
20260508215234 51 113 0.0 0.0 0.00 0.00 0.00 75 1017.8
20260508214736 51 113 0.0 0.0 0.00 0.00 0.00 75 1017.6
20260508214236 52 113 0.0 0.0 0.00 0.00 0.00 74 1017.9
20260508213236 52 113 0.0 0.0 0.00 0.00 0.00 74 1017.9
20260508212737 52 113 0.0 0.0 0.00 0.00 0.00 74 1017.8
20260508212236 52 113 0.0 0.0 0.00 0.00 0.00 74 1017.8
20260508211736 52 113 0.0 0.0 0.00 0.00 0.00 74 1017.9
20260508211238 53 113 0.0 0.0 0.00 0.00 0.00 74 1017.8
20260508210734 53 113 0.0 0.0 0.00 0.00 0.00 73 1017.7
20260508205734 53 113 0.0 0.0 0.00 0.00 0.00 73 1017.7
20260508204736 53 113 0.0 0.0 0.00 0.00 0.00 73 1017.6
20260508204236 53 113 0.0 0.0 0.00 0.00 0.00 72 1017.5
20260508203734 53 113 0.0 0.0 0.00 0.00 0.00 72 1017.5
20260508202236 54 135 0.0 0.0 0.00 0.00 0.00 71 1017.6
20260508201735 54 135 0.0 0.0 0.00 0.00 0.00 70 1017.4
20260508201237 54 135 0.0 0.0 0.00 0.00 0.00 70 1017.6
20260508200735 54 135 0.0 0.0 0.00 0.00 0.00 70 1017.4
20260508200237 54 135 0.0 0.0 0.00 0.00 0.00 70 1017.2
20260508195737 54 135 0.0 0.0 0.00 0.00 0.00 70 1017.5
20260508195235 55 135 0.0 0.0 0.00 0.00 0.00 69 1017.4
20260508194738 55 135 0.0 0.0 0.00 0.00 0.00 69 1017.2
20260508191738 56 135 0.0 0.0 0.00 0.00 0.00 66 1017.1
20260508190735 57 135 0.0 0.0 0.00 0.00 0.00 65 1016.8
20260508190237 57 135 0.0 0.0 0.00 0.00 0.00 65 1017.0
20260508185737 58 135 0.0 0.0 0.00 0.00 0.00 64 1016.8
20260508185239 58 135 0.0 0.0 0.00 0.00 0.00 63 1016.6
20260508184737 59 135 0.0 0.0 0.00 0.00 0.00 63 1016.5
20260508184238 59 135 0.0 0.0 0.00 0.00 0.00 62 1016.5
20260508183736 60 135 0.0 0.0 0.00 0.00 0.00 61 1016.3
20260508183238 60 135 0.0 0.0 0.00 0.00 0.00 61 1016.1
20260508182738 61 135 0.0 0.0 0.00 0.00 0.00 60 1016.2
20260508181738 62 135 0.0 0.0 0.00 0.00 0.00 58 1016.0
20260508181236 62 135 0.0 0.0 0.00 0.00 0.00 57 1015.9
20260508180238 64 135 0.0 0.0 0.00 0.00 0.00 54 1015.7
20260508175738 64 135 0.0 0.0 0.00 0.00 0.00 53 1015.8
20260508174736 66 135 0.0 0.0 0.00 0.00 0.00 51 1015.7
20260508174239 66 135 0.0 0.0 0.00 0.00 0.00 50 1015.7
20260508173739 67 135 0.0 0.0 0.00 0.00 0.00 50 1015.6
20260508173238 67 135 0.0 0.0 0.00 0.00 0.00 50 1015.6
20260508172738 67 135 0.0 0.0 0.00 0.00 0.00 49 1015.7
20260508171740 68 135 1.0 4.0 0.00 0.00 0.00 48 1015.4
20260508171241 68 135 0.0 0.0 0.00 0.00 0.00 48 1015.6
20260508170240 68 158 0.0 1.0 0.00 0.00 0.00 48 1015.5
20260508165739 69 135 0.0 0.0 0.00 0.00 0.00 48 1015.4
20260508165239 69 158 0.0 0.0 0.00 0.00 0.00 48 1015.3
20260508164739 69 158 0.0 2.0 0.00 0.00 0.00 48 1015.1
20260508163740 69 135 0.0 0.0 0.00 0.00 0.00 48 1015.2
20260508163240 69 135 1.0 3.0 0.00 0.00 0.00 48 1015.1